Salina, KS

8:26 PM CST on February 18, 2018 (GMT -0600)
Salina Municipal

Weather History for KSLN - May, 2013

Change the Weather History Date:

Sunday, May 12, 2013

  Actual Average Record
Temperature  
Mean Temperature 55 °F 64 °F  
Max Temperature 70 °F 75 °F 95 °F (1956)
Min Temperature 40 °F 53 °F 34 °F (1952)
Degree Days  
Heating Degree Days 10 4  
Month to date heating degree days 119 58  
Since 1 July heating degree days 4909 4826  
Cooling Degree Days 0 3  
Month to date cooling degree days 3 22  
Year to date cooling degree days 18 47  
Growing Degree Days 5 (Base 50)    
Moisture  
Dew Point 40 °F    
Average Humidity 59    
Maximum Humidity 79    
Minimum Humidity 39    
Precipitation  
Precipitation T in 0.14 in 1.13 in (1995)
Month to date precipitation 2.39 1.60  
Year to date precipitation 8.61 8.84  
Sea Level Pressure  
Sea Level Pressure 30.20 in    
Wind  
Wind Speed 8 mph (SSE)    
Max Wind Speed 23 mph    
Max Gust Speed 29 mph    
Visibility 10 miles    
Events Rain    
T = Trace of Precipitation, MM = Missing Value Source: NWS Daily Summary

Daily Weather History Graph

Daily Weather History Graph

Search for Another Location

Airport or City:

Trip Planner

Search our weather history database for the weather conditions in past years. The results will help you decide how hot, cold, wet, or windy it might be!

Date:

Astronomy

May. 12, 2013 Rise Set
Actual Time 6:20 AM CDT 8:33 PM CDT
Civil Twilight 5:51 AM CDT 9:03 PM CDT
Nautical Twilight 5:14 AM CDT 9:39 PM CDT
Astronomical Twilight 4:34 AM CDT 10:19 PM CDT
Moon 8:17 AM CDT (5/12) 11:01 PM CDT (5/12)
Length of Visible Light 15h 12m
Length of Day
14h 12m
Waxing Crescent, 7% of the Moon is Illuminated
May 12
Waxing Crescent
May 17
First Quarter
May 24
Full
May 31
Last Quarter
Jun 8
New

Hourly Weather History & Observations

Time (CDT) Temp. Windchill Dew Point Humidity Pressure Visibility Wind Dir Wind Speed Gust Speed Precip Events Conditions
12:53 AM 46.0 °F 44.8 °F 36.0 °F 68% 30.27 in 10.0 mi SSW 3.5 mph - N/A   Clear
1:53 AM 41.0 °F 39.0 °F 35.1 °F 79% 30.26 in 10.0 mi South 3.5 mph - N/A   Clear
2:53 AM 44.1 °F - 36.0 °F 73% 30.25 in 10.0 mi Calm Calm - N/A   Clear
3:53 AM 43.0 °F - 36.0 °F 76% 30.26 in 10.0 mi Calm Calm - N/A   Clear
4:53 AM 45.0 °F - 36.0 °F 71% 30.26 in 10.0 mi Calm Calm - N/A   Partly Cloudy
5:53 AM 44.1 °F - 37.0 °F 76% 30.26 in 10.0 mi Calm Calm - N/A   Clear
6:53 AM 44.1 °F 42.5 °F 35.1 °F 71% 30.27 in 10.0 mi SSW 3.5 mph - N/A   Partly Cloudy
7:53 AM 48.0 °F - 32.0 °F 54% 30.30 in 10.0 mi Calm Calm - N/A   Partly Cloudy
8:53 AM 51.1 °F - 39.9 °F 66% 30.27 in 10.0 mi SSE 12.7 mph - 0.00 in   Scattered Clouds
9:53 AM 55.9 °F - 35.1 °F 45% 30.29 in 10.0 mi SE 9.2 mph - N/A   Mostly Cloudy
10:53 AM 55.0 °F - 39.9 °F 57% 30.28 in 10.0 mi South 5.8 mph - 0.00 in Rain Light Rain
11:53 AM 54.0 °F - 34.0 °F 47% 30.26 in 10.0 mi SSE 10.4 mph 20.7 mph 0.00 in   Overcast
12:53 PM 60.1 °F - 39.0 °F 46% 30.21 in 10.0 mi SSE 11.5 mph 19.6 mph N/A   Scattered Clouds
1:53 PM 64.9 °F - 39.9 °F 40% 30.19 in 10.0 mi South 17.3 mph 21.9 mph N/A   Clear
2:53 PM 66.0 °F - 43.0 °F 43% 30.17 in 10.0 mi SSE 18.4 mph 21.9 mph N/A   Clear
3:53 PM 68.0 °F - 43.0 °F 40% 30.14 in 10.0 mi SSE 13.8 mph - N/A   Clear
4:53 PM 69.1 °F - 44.1 °F 40% 30.12 in 10.0 mi SE 13.8 mph - N/A   Clear
5:53 PM 69.1 °F - 45.0 °F 42% 30.10 in 10.0 mi SSE 13.8 mph - N/A   Clear
6:53 PM 68.0 °F - 44.1 °F 42% 30.09 in 10.0 mi SE 13.8 mph - N/A   Clear
7:53 PM 66.0 °F - 46.0 °F 48% 30.08 in 10.0 mi SE 9.2 mph - N/A   Clear
8:53 PM 62.1 °F - 45.0 °F 53% 30.09 in 10.0 mi ESE 8.1 mph - N/A   Clear
9:53 PM 59.0 °F - 45.0 °F 60% 30.10 in 10.0 mi ESE 8.1 mph - N/A   Clear
10:53 PM 57.0 °F - 45.0 °F 64% 30.12 in 10.0 mi East 5.8 mph - N/A   Clear
11:53 PM 53.1 °F - 45.0 °F 74% 30.12 in 10.0 mi SE 9.2 mph - N/A   Clear